Home   Weather   Chula Vista   Past weeks

Flag for USA Past Weather in Chula Vista, California, USA — Yesterday and Last 2 Weeks

Now
46 °F

Clear.


Feels Like: 44 °F
Forecast: 48 / 65 °F
Wind: 5 mph from Southeast

Location: Brown Field Municipal Airport

Current Time: Dec 8, 2016 at 4:17:25 am

Latest Report: Dec 8, 2016 at 2:53 am


Visibility: 9 mi

Pressure: 30.16 "Hg

Humidity: 93%

Dew Point: 44 °F

Location of Chula VistaLocation

Past Weather in Chula Vista — Graph

°F

Chula Vista Temperature Yesterday

Maximum temperature yesterday: 63 °F (at 11:53 am)
Minimum temperature yesterday: 49 °F (at 11:53 pm)
Average temperature yesterday: 55 °F

High & Low Weather Summary for the Past Weeks

 TemperatureHumidityPressure
High82 °F (Nov 24, 1:53 pm)100% (Nov 26, 4:53 pm)30.16 "Hg (Nov 26, 4:53 pm)
Low38 °F (Dec 3, 5:53 am)9% (Nov 25, 1:53 pm)29.85 "Hg (Nov 28, 5:53 pm)
Average56 °F64%30.01 "Hg
* Reported Nov 23 2:02 am — Dec 8 2:53 am, Chula Vista, Weather by CustomWeather, © 2016

Note: Actual official high and low records may vary slightly from our data, if they occured in-between our weather recording intervals... More about our weather records

Advertising

Chula Vista Weather History for the Previous 24 Hours

Scroll right to see more
 ConditionsComfort  
Time TempWeatherWind HumidityBarometerVisibility
2:53 am
Thu, Dec 8
46 °FClear.5 mph93%30.16 "Hg9 mi
1:53 am48 °FClear.5 mph93%30.16 "Hg10 mi
12:53 am49 °FClear.5 mph93%30.14 "Hg10 mi
11:53 pm
Wed, Dec 7
49 °FClear.5 mph93%30.14 "Hg10 mi
10:53 pm50 °FClear.3 mph89%30.15 "Hg10 mi
9:53 pm51 °FClear.5 mph92%30.14 "Hg8 mi
8:53 pm51 °FClear.5 mph89%30.13 "Hg10 mi
7:53 pm54 °FClear.No wind86%30.13 "Hg10 mi
6:53 pm54 °FClear.No wind86%30.12 "Hg10 mi
5:53 pm56 °FClear.5 mph81%30.11 "Hg10 mi
4:53 pm56 °FClear.3 mph77%30.08 "Hg10 mi
3:53 pm60 °FPassing clouds.No wind67%30.08 "Hg10 mi
2:53 pm61 °FBroken clouds.7 mph67%30.08 "Hg10 mi
1:53 pm61 °FMore clouds than sun.7 mph67%30.06 "Hg10 mi
12:53 pm62 °FOvercast.12 mph65%30.06 "Hg10 mi
11:53 am63 °FOvercast.No wind54%30.07 "Hg10 mi
10:53 am62 °FScattered clouds.5 mph58%30.09 "Hg10 mi
9:53 am61 °FSunny.6 mph62%30.11 "Hg10 mi
8:53 am57 °FSunny.6 mph72%30.10 "Hg9 mi
7:53 am54 °FSunny.5 mph80%30.08 "Hg8 mi
6:53 am50 °FFog.5 mph89%30.06 "Hg5 mi
5:53 am51 °FClear.6 mph86%30.05 "Hg7 mi
4:53 am51 °FFog.5 mph86%30.04 "Hg5 mi
Weather by CustomWeather, © 2016

See weather overviewHow to use our weather pages